Location: Fredericksburg
(30.2750°N, 98.8720°W)
Time: 17:24:19
(UTC-05:00)

PCSat - Visible Passes

Search period start: 26 May 2016 00:00
Search period end: 05 June 2016 00:00
Orbit: 785 x 795 km, 67.1° (Epoch: 25 May)

Date Brightness Start Highest point End Pass type
(mag) Time Alt. Az. Time Alt. Az. Time Alt. Az.
26 May 11.4 21:35:26 10° NW 21:39:57 27° WSW 21:44:28 10° SSW visible
27 May 10.8 21:04:14 10° NW 21:09:15 40° WSW 21:14:15 10° S visible
30 May 12.4 21:17:58 10° W 21:19:39 11° WSW 21:21:20 10° WSW visible
